Tracking 21076 objects as of 7-Aug-2020
HD Live streaming from Space Station
objects crossing your sky now

FREGAT DEB

Track FREGAT DEB now!
10-day predictions


NORAD ID: 45644
Int'l Code: 2011-037AL
Perigee: 492.9 km
Apogee: 3,166.6 km
Inclination: 51.5 °
Period: 123.2 minutes
Semi major axis: 8200 km
RCS: Unknown
Launch date: July 18, 2011
Source: Commonwealth of Independent States (former USSR) (CIS)
Launch site: TYURATAM MISSILE AND SPACE COMPLEX (TTMTR)

Note: This is SATELLITE DEBRIS
aabbcc
Your satellite tracking list
Your tracking list is empty




NASA's NSSDC Master Catalog

Two Line Element Set (TLE):
1 45644U 11037AL  20220.10773472 -.00000497  00000-0 -12564-3 0  9995
2 45644  51.5422 206.2030 1630177 184.5622 173.8565 11.69022329  8435
Source of the keplerian elements: AFSPC